| time (UTC) | temp C | wind direction | speed KPH | gust KPH | rain 1hr cm | rain 24hr cm | rain mn cm | humidity % | barometer mb |
| 20260906171735 | 15 | 56 | 1.6 | 6.4 | 0.00 | 0.00 | 0.00 | 54 | 1028.3 |
| 20260906171234 | 15 | 72 | 3.2 | 6.4 | 0.00 | 0.00 | 0.00 | 56 | 1028.3 |
| 20260906170733 | 14 | 230 | 1.6 | 6.4 | 0.00 | 0.00 | 0.00 | 56 | 1028.4 |
| 20260906170235 | 14 | 56 | 3.2 | 4.8 | 0.00 | 0.00 | 0.00 | 58 | 1028.5 |
| 20260906165734 | 13 | 321 | 1.6 | 6.4 | 0.00 | 0.00 | 0.00 | 59 | 1028.4 |
| 20260906165239 | 13 | 49 | 1.6 | 6.4 | 0.00 | 0.00 | 0.00 | 60 | 1028.5 |
| 20260906164733 | 13 | 78 | 3.2 | 6.4 | 0.00 | 0.00 | 0.00 | 60 | 1028.7 |
| 20260906164233 | 13 | 86 | 3.2 | 8.0 | 0.00 | 0.00 | 0.00 | 61 | 1028.7 |
| 20260906163734 | 13 | 111 | 1.6 | 8.0 | 0.00 | 0.00 | 0.00 | 61 | 1028.9 |
| 20260906163233 | 13 | 114 | 1.6 | 8.0 | 0.00 | 0.00 | 0.00 | 62 | 1028.9 |
| 20260906162734 | 13 | 123 | 3.2 | 8.0 | 0.00 | 0.00 | 0.00 | 64 | 1028.9 |
| 20260906162232 | 13 | 93 | 1.6 | 6.4 | 0.00 | 0.00 | 0.00 | 63 | 1028.9 |
| 20260906161734 | 12 | 80 | 1.6 | 3.2 | 0.00 | 0.00 | 0.00 | 62 | 1029.1 |
| 20260906161232 | 12 | 94 | 0.0 | 1.6 | 0.00 | 0.00 | 0.00 | 65 | 1029.1 |
| 20260906160734 | 12 | 63 | 0.0 | 1.6 | 0.00 | 0.00 | 0.00 | 66 | 1029.1 |
| 20260906160501 | 11 | 65 | 0.0 | 4.8 | 0.00 | 0.00 | 0.00 | 69 | 1029.1 |
| 20260906155950 | 11 | 59 | 1.6 | 6.4 | 0.00 | 0.00 | 0.00 | 68 | 1029.1 |
| 20260906155238 | 11 | 56 | 3.2 | 6.4 | 0.00 | 0.00 | 0.00 | 70 | 1029.2 |
| 20260906154733 | 11 | 78 | 0.0 | 1.6 | 0.00 | 0.00 | 0.00 | 70 | 1029.3 |
| 20260906154233 | 10 | 106 | 0.0 | 1.6 | 0.00 | 0.00 | 0.00 | 71 | 1029.3 |
| 20260906153733 | 10 | 145 | 0.0 | 1.6 | 0.00 | 0.00 | 0.00 | 73 | 1029.3 |
| 20260906153233 | 10 | 111 | 0.0 | 3.2 | 0.00 | 0.00 | 0.00 | 74 | 1029.4 |
| 20260906152731 | 10 | 73 | 0.0 | 3.2 | 0.00 | 0.00 | 0.00 | 75 | 1029.4 |
| 20260906152233 | 9 | 161 | 0.0 | 3.2 | 0.00 | 0.00 | 0.00 | 77 | 1029.5 |
| 20260906151732 | 8 | 130 | 0.0 | 3.2 | 0.00 | 0.00 | 0.00 | 81 | 1029.6 |
| 20260906151505 | 7 | 130 | 0.0 | 1.6 | 0.00 | 0.00 | 0.00 | 82 | 1029.6 |
| 20260906150732 | 7 | 121 | 0.0 | 3.2 | 0.00 | 0.00 | 0.00 | 85 | 1029.8 |
| 20260906150718 | 7 | 35 | 0.0 | 3.2 | 0.00 | 0.00 | 0.00 | 86 | 1029.7 |
| 20260906145939 | 6 | 61 | 1.6 | 3.2 | 0.00 | 0.00 | 0.00 | 90 | 1029.9 |
| 20260906145823 | 6 | 56 | 0.0 | 3.2 | 0.00 | 0.00 | 0.00 | 87 | 1029.8 |
| 20260906144732 | 6 | 71 | 0.0 | 1.6 | 0.00 | 0.00 | 0.00 | 93 | 1029.9 |
| 20260906144230 | 5 | 71 | 0.0 | 1.6 | 0.00 | 0.00 | 0.00 | 93 | 1029.9 |
| 20260906143732 | 4 | 79 | 0.0 | 3.2 | 0.00 | 0.00 | 0.00 | 93 | 1030.0 |
| 20260906143237 | 4 | 78 | 1.6 | 3.2 | 0.00 | 0.00 | 0.00 | 93 | 1029.9 |
| 20260906142736 | 3 | 165 | 0.0 | 0.0 | 0.00 | 0.00 | 0.00 | 93 | 1030.0 |
| 20260906142230 | 3 | 165 | 0.0 | 0.0 | 0.00 | 0.00 | 0.00 | 93 | 1030.0 |
| 20260906141731 | 3 | 165 | 0.0 | 0.0 | 0.00 | 0.00 | 0.00 | 93 | 1029.9 |
| 20260906141232 | 3 | 165 | 0.0 | 0.0 | 0.00 | 0.00 | 0.00 | 93 | 1030.0 |
| 20260906140730 | 3 | 165 | 0.0 | 0.0 | 0.00 | 0.00 | 0.00 | 92 | 1030.0 |
| 20260906140231 | 3 | 165 | 0.0 | 0.0 | 0.00 | 0.00 | 0.00 | 92 | 1030.0 |
| 20260906135730 | 3 | 165 | 0.0 | 0.0 | 0.00 | 0.00 | 0.00 | 92 | 1030.0 |
| 20260906135233 | 3 | 164 | 0.0 | 1.6 | 0.00 | 0.00 | 0.00 | 91 | 1030.0 |
| 20260906134730 | 3 | 165 | 0.0 | 1.6 | 0.00 | 0.00 | 0.00 | 93 | 1030.1 |
| 20260906134229 | 3 | 165 | 0.0 | 0.0 | 0.00 | 0.00 | 0.00 | 93 | 1030.0 |
| 20260906133729 | 3 | 165 | 0.0 | 0.0 | 0.00 | 0.00 | 0.00 | 93 | 1030.1 |
| 20260906133229 | 3 | 164 | 0.0 | 0.0 | 0.00 | 0.00 | 0.00 | 92 | 1030.2 |
| 20260906132730 | 3 | 164 | 0.0 | 0.0 | 0.00 | 0.00 | 0.00 | 92 | 1030.2 |
| 20260906132228 | 3 | 164 | 0.0 | 0.0 | 0.00 | 0.00 | 0.00 | 92 | 1030.1 |
| 20260906131730 | 3 | 164 | 0.0 | 0.0 | 0.00 | 0.00 | 0.00 | 91 | 1030.1 |
| 20260906131450 | 3 | 164 | 0.0 | 0.0 | 0.00 | 0.00 | 0.00 | 91 | 1030.1 |
| 20260906130730 | 3 | 164 | 0.0 | 0.0 | 0.00 | 0.00 | 0.00 | 90 | 1030.1 |
| 20260906130230 | 3 | 164 | 0.0 | 0.0 | 0.00 | 0.00 | 0.00 | 91 | 1030.2 |
| 20260906125729 | 3 | 164 | 0.0 | 0.0 | 0.00 | 0.00 | 0.00 | 90 | 1030.3 |
| 20260906125229 | 3 | 164 | 0.0 | 3.2 | 0.00 | 0.00 | 0.00 | 89 | 1030.3 |
| 20260906124727 | 3 | 164 | 0.0 | 3.2 | 0.00 | 0.00 | 0.00 | 90 | 1030.3 |
| 20260906124229 | 3 | 164 | 0.0 | 1.6 | 0.00 | 0.00 | 0.00 | 90 | 1030.3 |
| 20260906123728 | 4 | 164 | 0.0 | 1.6 | 0.00 | 0.00 | 0.00 | 90 | 1030.4 |
| 20260906123718 | 4 | 164 | 0.0 | 1.6 | 0.00 | 0.00 | 0.00 | 89 | 1030.3 |
| 20260906122728 | 4 | 164 | 0.0 | 1.6 | 0.00 | 0.00 | 0.00 | 89 | 1030.3 |
| 20260906122229 | 4 | 149 | 1.6 | 1.6 | 0.00 | 0.00 | 0.00 | 90 | 1030.4 |
| 20260906121727 | 4 | 204 | 0.0 | 0.0 | 0.00 | 0.00 | 0.00 | 89 | 1030.3 |
| 20260906121227 | 4 | 209 | 0.0 | 0.0 | 0.00 | 0.00 | 0.00 | 90 | 1030.4 |
| 20260906120728 | 4 | 209 | 0.0 | 0.0 | 0.00 | 0.00 | 0.00 | 89 | 1030.4 |
| 20260906120227 | 4 | 209 | 0.0 | 0.0 | 0.00 | 0.00 | 0.00 | 89 | 1030.4 |
| 20260906115728 | 4 | 209 | 0.0 | 0.0 | 0.00 | 0.00 | 0.00 | 89 | 1030.4 |
| 20260906115226 | 5 | 209 | 0.0 | 1.6 | 0.00 | 0.00 | 0.00 | 88 | 1030.3 |
| 20260906114728 | 5 | 209 | 0.0 | 1.6 | 0.00 | 0.00 | 0.00 | 87 | 1030.4 |
| 20260906114226 | 5 | 200 | 0.0 | 1.6 | 0.00 | 0.00 | 0.00 | 87 | 1030.3 |
| 20260906113728 | 5 | 197 | 0.0 | 0.0 | 0.00 | 0.00 | 0.00 | 87 | 1030.4 |
| 20260906113227 | 5 | 197 | 0.0 | 0.0 | 0.00 | 0.00 | 0.00 | 87 | 1030.4 |
| 20260906112726 | 5 | 197 | 0.0 | 0.0 | 0.00 | 0.00 | 0.00 | 86 | 1030.4 |
| 20260906112226 | 5 | 197 | 0.0 | 0.0 | 0.00 | 0.00 | 0.00 | 85 | 1030.4 |
| 20260906111726 | 5 | 197 | 0.0 | 0.0 | 0.00 | 0.00 | 0.00 | 85 | 1030.6 |
| 20260906111227 | 5 | 197 | 0.0 | 1.6 | 0.00 | 0.00 | 0.00 | 85 | 1030.4 |
| 20260906110726 | 5 | 197 | 0.0 | 1.6 | 0.00 | 0.00 | 0.00 | 85 | 1030.6 |
| 20260906110446 | 5 | 197 | 1.6 | 1.6 | 0.00 | 0.00 | 0.00 | 85 | 1030.6 |
| 20260906105725 | 5 | 199 | 0.0 | 0.0 | 0.00 | 0.00 | 0.00 | 86 | 1030.6 |
| 20260906105235 | 6 | 199 | 0.0 | 1.6 | 0.00 | 0.00 | 0.00 | 84 | 1030.7 |
| 20260906105227 | 6 | 199 | 0.0 | 1.6 | 0.00 | 0.00 | 0.00 | 84 | 1030.7 |
| 20260906104225 | 6 | 217 | 0.0 | 1.6 | 0.00 | 0.00 | 0.00 | 84 | 1030.8 |
| 20260906103953 | 6 | 217 | 0.0 | 3.2 | 0.00 | 0.00 | 0.00 | 84 | 1030.8 |
| 20260906103226 | 6 | 217 | 1.6 | 3.2 | 0.00 | 0.00 | 0.00 | 84 | 1030.7 |
| 20260906102727 | 6 | 217 | 0.0 | 1.6 | 0.00 | 0.00 | 0.00 | 85 | 1030.8 |
| 20260906102225 | 6 | 217 | 0.0 | 3.2 | 0.00 | 0.00 | 0.00 | 84 | 1030.8 |
| 20260906101727 | 6 | 217 | 3.2 | 3.2 | 0.00 | 0.00 | 0.00 | 85 | 1030.8 |
| 20260906101225 | 6 | 224 | 0.0 | 4.8 | 0.00 | 0.00 | 0.00 | 84 | 1030.8 |
| 20260906100724 | 6 | 224 | 0.0 | 4.8 | 0.00 | 0.00 | 0.00 | 83 | 1030.8 |
| 20260906100225 | 6 | 214 | 3.2 | 4.8 | 0.00 | 0.00 | 0.00 | 84 | 1030.8 |
| 20260906095948 | 6 | 204 | 1.6 | 4.8 | 0.00 | 0.00 | 0.00 | 83 | 1030.8 |
| 20260906095225 | 6 | 183 | 0.0 | 3.2 | 0.00 | 0.00 | 0.00 | 83 | 1030.7 |
| 20260906094730 | 7 | 209 | 0.0 | 3.2 | 0.00 | 0.00 | 0.00 | 84 | 1030.7 |
| 20260906094226 | 7 | 214 | 1.6 | 3.2 | 0.00 | 0.00 | 0.00 | 83 | 1030.8 |
| 20260906093945 | 7 | 213 | 1.6 | 3.2 | 0.00 | 0.00 | 0.00 | 84 | 1030.7 |
| 20260906093225 | 7 | 200 | 0.0 | 3.2 | 0.00 | 0.00 | 0.00 | 84 | 1030.7 |
| 20260906092946 | 7 | 203 | 0.0 | 1.6 | 0.00 | 0.00 | 0.00 | 84 | 1030.8 |
| 20260906092223 | 7 | 164 | 0.0 | 1.6 | 0.00 | 0.00 | 0.00 | 84 | 1030.7 |
| 20260906091723 | 7 | 162 | 0.0 | 1.6 | 0.00 | 0.00 | 0.00 | 84 | 1030.8 |
| 20260906091222 | 7 | 161 | 1.6 | 3.2 | 0.00 | 0.00 | 0.00 | 83 | 1030.9 |
| 20260906090724 | 7 | 204 | 1.6 | 3.2 | 0.00 | 0.00 | 0.00 | 85 | 1030.8 |
| 20260906090229 | 7 | 241 | 0.0 | 1.6 | 0.00 | 0.00 | 0.00 | 84 | 1030.8 |
| 20260906085725 | 7 | 214 | 0.0 | 1.6 | 0.00 | 0.00 | 0.00 | 84 | 1030.7 |
| 20260906085224 | 7 | 220 | 0.0 | 0.0 | 0.00 | 0.00 | 0.00 | 84 | 1030.8 |
| 20260906084724 | 7 | 220 | 0.0 | 0.0 | 0.00 | 0.00 | 0.00 | 84 | 1030.9 |
| 20260906084223 | 7 | 220 | 0.0 | 0.0 | 0.00 | 0.00 | 0.00 | 84 | 1031.0 |
| 20260906083728 | 7 | 200 | 0.0 | 0.0 | 0.00 | 0.00 | 0.00 | 84 | 1030.9 |
| 20260906083223 | 7 | 235 | 0.0 | 0.0 | 0.00 | 0.00 | 0.00 | 84 | 1030.9 |
| 20260906082722 | 7 | 235 | 0.0 | 0.0 | 0.00 | 0.00 | 0.00 | 83 | 1031.0 |
| 20260906082223 | 7 | 235 | 0.0 | 0.0 | 0.00 | 0.00 | 0.00 | 83 | 1031.0 |
| 20260906081722 | 7 | 235 | 0.0 | 0.0 | 0.00 | 0.00 | 0.00 | 83 | 1030.9 |
| 20260906081226 | 8 | 235 | 0.0 | 0.0 | 0.00 | 0.00 | 0.00 | 83 | 1031.0 |
| 20260906080723 | 8 | 235 | 0.0 | 0.0 | 0.00 | 0.00 | 0.00 | 84 | 1031.1 |
| 20260906080223 | 7 | 227 | 0.0 | 3.2 | 0.00 | 0.00 | 0.00 | 84 | 1031.1 |
| 20260906075947 | 7 | 204 | 0.0 | 3.2 | 0.00 | 0.00 | 0.00 | 84 | 1031.1 |
| 20260906075222 | 7 | 206 | 0.0 | 0.0 | 0.00 | 0.00 | 0.00 | 85 | 1031.0 |
| 20260906074722 | 7 | 206 | 0.0 | 0.0 | 0.00 | 0.00 | 0.00 | 84 | 1031.1 |
| 20260906074221 | 7 | 206 | 0.0 | 0.0 | 0.00 | 0.00 | 0.00 | 84 | 1031.1 |
| 20260906073722 | 8 | 206 | 0.0 | 0.0 | 0.00 | 0.00 | 0.00 | 82 | 1031.1 |
| 20260906073227 | 8 | 206 | 0.0 | 0.0 | 0.00 | 0.00 | 0.00 | 81 | 1031.1 |
| 20260906072722 | 8 | 206 | 0.0 | 0.0 | 0.00 | 0.00 | 0.00 | 81 | 1031.2 |
| 20260906072223 | 8 | 241 | 0.0 | 0.0 | 0.00 | 0.00 | 0.00 | 84 | 1031.2 |
| 20260906072209 | 8 | 241 | 0.0 | 1.6 | 0.00 | 0.00 | 0.00 | 83 | 1031.3 |
| 20260906071221 | 8 | 220 | 0.0 | 1.6 | 0.00 | 0.00 | 0.00 | 85 | 1031.2 |
| 20260906070720 | 8 | 219 | 0.0 | 1.6 | 0.00 | 0.00 | 0.00 | 85 | 1031.1 |
| 20260906070443 | 8 | 212 | 0.0 | 1.6 | 0.00 | 0.00 | 0.00 | 84 | 1031.2 |
| 20260906065945 | 8 | 212 | 0.0 | 0.0 | 0.00 | 0.00 | 0.00 | 84 | 1031.2 |
| 20260906065221 | 8 | 212 | 0.0 | 0.0 | 0.00 | 0.00 | 0.00 | 83 | 1031.2 |
| 20260906064720 | 8 | 212 | 0.0 | 0.0 | 0.00 | 0.00 | 0.00 | 84 | 1031.2 |
| 20260906064221 | 8 | 212 | 0.0 | 0.0 | 0.00 | 0.00 | 0.00 | 83 | 1031.2 |
| 20260906063723 | 8 | 212 | 0.0 | 0.0 | 0.00 | 0.00 | 0.00 | 83 | 1031.3 |
| 20260906063220 | 8 | 212 | 0.0 | 0.0 | 0.00 | 0.00 | 0.00 | 82 | 1031.3 |
| 20260906062720 | 8 | 212 | 0.0 | 0.0 | 0.00 | 0.00 | 0.00 | 82 | 1031.3 |
| 20260906062219 | 8 | 212 | 0.0 | 0.0 | 0.00 | 0.00 | 0.00 | 81 | 1031.3 |
| 20260906061719 | 9 | 212 | 0.0 | 0.0 | 0.00 | 0.00 | 0.00 | 80 | 1031.2 |
| 20260906061219 | 9 | 212 | 0.0 | 0.0 | 0.00 | 0.00 | 0.00 | 80 | 1031.1 |
| 20260906060722 | 9 | 212 | 0.0 | 0.0 | 0.00 | 0.00 | 0.00 | 79 | 1031.0 |
| 20260906060224 | 9 | 212 | 0.0 | 0.0 | 0.00 | 0.00 | 0.00 | 78 | 1031.1 |
| 20260906055943 | 9 | 212 | 0.0 | 1.6 | 0.00 | 0.00 | 0.00 | 77 | 1031.1 |
| 20260906055219 | 9 | 212 | 0.0 | 3.2 | 0.00 | 0.00 | 0.00 | 77 | 1031.1 |
| 20260906054724 | 10 | 223 | 1.6 | 3.2 | 0.00 | 0.00 | 0.00 | 79 | 1031.1 |
| 20260906054440 | 10 | 197 | 0.0 | 3.2 | 0.00 | 0.00 | 0.00 | 78 | 1031.0 |
| 20260906053718 | 10 | 185 | 0.0 | 0.0 | 0.00 | 0.00 | 0.00 | 77 | 1030.9 |
| 20260906053220 | 10 | 185 | 0.0 | 0.0 | 0.00 | 0.00 | 0.00 | 76 | 1031.0 |
| 20260906052949 | 10 | 185 | 0.0 | 0.0 | 0.00 | 0.00 | 0.00 | 76 | 1031.1 |
| 20260906052219 | 10 | 185 | 0.0 | 0.0 | 0.00 | 0.00 | 0.00 | 76 | 1031.0 |
| 20260906051934 | 11 | 185 | 0.0 | 0.0 | 0.00 | 0.00 | 0.00 | 74 | 1031.2 |
| 20260906051819 | 10 | 185 | 0.0 | 0.0 | 0.00 | 0.00 | 0.00 | 74 | 1031.2 |
| 20260906050943 | 11 | 185 | 0.0 | 0.0 | 0.00 | 0.00 | 0.00 | 75 | 1031.3 |
| 20260906050218 | 11 | 185 | 0.0 | 0.0 | 0.00 | 0.00 | 0.00 | 74 | 1031.3 |
| 20260906045718 | 11 | 185 | 0.0 | 1.6 | 0.00 | 0.00 | 0.00 | 74 | 1031.3 |
| 20260906045225 | 11 | 185 | 0.0 | 1.6 | 0.00 | 0.00 | 0.00 | 73 | 1031.3 |
| 20260906044719 | 11 | 185 | 0.0 | 1.6 | 0.00 | 0.00 | 0.00 | 73 | 1031.2 |
| 20260906044217 | 12 | 41 | 0.0 | 0.0 | 0.00 | 0.00 | 0.00 | 72 | 1031.3 |
| 20260906043719 | 12 | 41 | 0.0 | 0.0 | 0.00 | 0.00 | 0.00 | 74 | 1031.2 |
| 20260906043221 | 12 | 41 | 0.0 | 0.0 | 0.00 | 0.00 | 0.00 | 73 | 1031.2 |
| 20260906042719 | 12 | 41 | 0.0 | 0.0 | 0.00 | 0.00 | 0.00 | 73 | 1031.2 |
| 20260906042221 | 13 | 41 | 0.0 | 3.2 | 0.00 | 0.00 | 0.00 | 72 | 1031.3 |
| 20260906041716 | 13 | 41 | 0.0 | 4.8 | 0.00 | 0.00 | 0.00 | 71 | 1031.4 |
| 20260906041433 | 13 | 114 | 0.0 | 8.0 | 0.00 | 0.00 | 0.00 | 69 | 1031.3 |
| 20260906040716 | 13 | 99 | 3.2 | 8.0 | 0.00 | 0.00 | 0.00 | 69 | 1031.3 |
| 20260906040218 | 13 | 111 | 3.2 | 6.4 | 0.00 | 0.00 | 0.00 | 67 | 1031.4 |
| 20260906035717 | 13 | 109 | 1.6 | 4.8 | 0.00 | 0.00 | 0.00 | 66 | 1031.4 |
| 20260906035217 | 13 | 117 | 0.0 | 4.8 | 0.00 | 0.00 | 0.00 | 66 | 1031.3 |
| 20260906034716 | 13 | 111 | 1.6 | 4.8 | 0.00 | 0.00 | 0.00 | 65 | 1031.2 |
| 20260906034439 | 14 | 128 | 0.0 | 6.4 | 0.00 | 0.00 | 0.00 | 63 | 1031.1 |
| 20260906033715 | 14 | 154 | 1.6 | 9.7 | 0.00 | 0.00 | 0.00 | 63 | 1030.9 |
| 20260906033215 | 13 | 186 | 3.2 | 9.7 | 0.00 | 0.00 | 0.00 | 63 | 1031.0 |
| 20260906032938 | 13 | 162 | 4.8 | 6.4 | 0.00 | 0.00 | 0.00 | 64 | 1030.8 |
| 20260906032215 | 13 | 235 | 1.6 | 1.6 | 0.00 | 0.00 | 0.00 | 64 | 1030.7 |
| 20260906031943 | 14 | 235 | 0.0 | 0.0 | 0.00 | 0.00 | 0.00 | 63 | 1030.7 |
| 20260906031215 | 14 | 235 | 0.0 | 3.2 | 0.00 | 0.00 | 0.00 | 62 | 1030.7 |
| 20260906030716 | 14 | 235 | 1.6 | 3.2 | 0.00 | 0.00 | 0.00 | 62 | 1030.7 |
| 20260906030442 | 14 | 244 | 0.0 | 3.2 | 0.00 | 0.00 | 0.00 | 62 | 1030.6 |
| 20260906025714 | 14 | 220 | 0.0 | 4.8 | 0.00 | 0.00 | 0.00 | 62 | 1030.6 |
| 20260906025216 | 14 | 171 | 1.6 | 4.8 | 0.00 | 0.00 | 0.00 | 61 | 1030.6 |
| 20260906024711 | 15 | 206 | 1.6 | 4.8 | 0.00 | 0.00 | 0.00 | 61 | 1030.6 |
| 20260906024210 | 15 | 165 | 1.6 | 4.8 | 0.00 | 0.00 | 0.00 | 60 | 1030.6 |
| 20260906023714 | 15 | 140 | 1.6 | 4.8 | 0.00 | 0.00 | 0.00 | 60 | 1030.6 |
| 20260906023216 | 15 | 49 | 0.0 | 4.8 | 0.00 | 0.00 | 0.00 | 59 | 1030.6 |
| 20260906022714 | 15 | 39 | 1.6 | 4.8 | 0.00 | 0.00 | 0.00 | 59 | 1030.6 |
| 20260906022216 | 15 | 73 | 0.0 | 6.4 | 0.00 | 0.00 | 0.00 | 58 | 1030.7 |
| 20260906022200 | 15 | 23 | 0.0 | 11.3 | 0.00 | 0.00 | 0.00 | 58 | 1030.4 |
| 20260906021214 | 15 | 69 | 4.8 | 11.3 | 0.00 | 0.00 | 0.00 | 57 | 1030.3 |
| 20260906020709 | 15 | 52 | 6.4 | 9.7 | 0.00 | 0.00 | 0.00 | 55 | 1030.3 |
| 20260906020209 | 16 | 41 | 8.0 | 11.3 | 0.00 | 0.00 | 0.00 | 53 | 1030.2 |
| 20260906015711 | 16 | 45 | 4.8 | 16.1 | 0.00 | 0.00 | 0.00 | 53 | 1030.2 |
| 20260906015435 | 16 | 92 | 6.4 | 19.3 | 0.00 | 0.00 | 0.00 | 52 | 1030.1 |
| 20260906014715 | 16 | 73 | 8.0 | 24.1 | 0.00 | 0.00 | 0.00 | 50 | 1030.1 |
| 20260906014218 | 17 | 27 | 8.0 | 24.1 | 0.00 | 0.00 | 0.00 | 47 | 1030.2 |
| 20260906013718 | 18 | 31 | 4.8 | 14.5 | 0.00 | 0.00 | 0.00 | 41 | 1030.2 |
| 20260906013213 | 18 | 20 | 6.4 | 9.7 | 0.00 | 0.00 | 0.00 | 40 | 1029.7 |
| 20260906012713 | 18 | 4 | 3.2 | 11.3 | 0.00 | 0.00 | 0.00 | 41 | 1029.7 |
| 20260906012214 | 18 | 37 | 6.4 | 11.3 | 0.00 | 0.00 | 0.00 | 40 | 1029.6 |
| 20260906011712 | 18 | 338 | 4.8 | 9.7 | 0.00 | 0.00 | 0.00 | 39 | 1029.5 |
| 20260906011210 | 18 | 331 | 4.8 | 9.7 | 0.00 | 0.00 | 0.00 | 40 | 1029.5 |
| 20260906010712 | 18 | 353 | 4.8 | 9.7 | 0.00 | 0.00 | 0.00 | 39 | 1029.4 |
| 20260906010213 | 18 | 353 | 6.4 | 14.5 | 0.00 | 0.00 | 0.00 | 39 | 1029.5 |
| 20260906005712 | 19 | 334 | 8.0 | 16.1 | 0.00 | 0.00 | 0.00 | 38 | 1029.4 |
| 20260906005212 | 19 | 14 | 11.3 | 16.1 | 0.00 | 0.00 | 0.00 | 37 | 1029.4 |
| 20260906004717 | 19 | 41 | 4.8 | 16.1 | 0.00 | 0.00 | 0.00 | 39 | 1029.4 |
| 20260906004212 | 20 | 28 | 4.8 | 14.5 | 0.00 | 0.00 | 0.00 | 39 | 1029.3 |
| 20260906003712 | 20 | 347 | 3.2 | 14.5 | 0.00 | 0.00 | 0.00 | 41 | 1029.2 |
| 20260906003208 | 19 | 30 | 6.4 | 14.5 | 0.00 | 0.00 | 0.00 | 40 | 1029.3 |
| 20260906002709 | 19 | 49 | 4.8 | 14.5 | 0.00 | 0.00 | 0.00 | 39 | 1029.2 |
| 20260906002432 | 19 | 341 | 8.0 | 9.7 | 0.00 | 0.00 | 0.00 | 40 | 1029.2 |
| 20260906001712 | 19 | 56 | 3.2 | 11.3 | 0.00 | 0.00 | 0.00 | 39 | 1029.1 |
| 20260906001437 | 20 | 31 | 4.8 | 11.3 | 0.00 | 0.00 | 0.00 | 39 | 1029.2 |
| 20260906000711 | 19 | 35 | 6.4 | 11.3 | 0.00 | 0.00 | 0.00 | 39 | 1029.1 |
| 20260906000212 | 19 | 41 | 4.8 | 11.3 | 0.00 | 0.00 | 0.00 | 40 | 1029.3 |
| 20260905235715 | 19 | 330 | 6.4 | 16.1 | 0.00 | 0.00 | 0.00 | 40 | 1029.3 |
| 20260905235211 | 19 | 16 | 3.2 | 16.1 | 0.00 | 0.00 | 0.00 | 40 | 1029.3 |
| 20260905234710 | 19 | 343 | 4.8 | 17.7 | 0.00 | 0.00 | 0.00 | 39 | 1029.3 |
| 20260905234208 | 19 | 343 | 11.3 | 17.7 | 0.00 | 0.00 | 0.00 | 38 | 1029.3 |
| 20260905233710 | 19 | 39 | 9.7 | 17.7 | 0.00 | 0.00 | 0.00 | 37 | 1029.2 |
| 20260905233211 | 20 | 333 | 8.0 | 16.1 | 0.00 | 0.00 | 0.00 | 37 | 1029.2 |
| 20260905232711 | 20 | 63 | 4.8 | 19.3 | 0.00 | 0.00 | 0.00 | 38 | 1029.2 |
| 20260905232210 | 20 | 37 | 9.7 | 19.3 | 0.00 | 0.00 | 0.00 | 37 | 1029.1 |
| 20260905231709 | 20 | 44 | 6.4 | 17.7 | 0.00 | 0.00 | 0.00 | 38 | 1029.1 |
| 20260905231434 | 20 | 28 | 9.7 | 17.7 | 0.00 | 0.00 | 0.00 | 37 | 1029.2 |
| 20260905230923 | 20 | 193 | 3.2 | 14.5 | 0.00 | 0.00 | 0.00 | 36 | 1029.1 |
| 20260905230651 | 19 | 38 | 8.0 | 14.5 | 0.00 | 0.00 | 0.00 | 39 | 1029.3 |
| 20260905225710 | 18 | 37 | 8.0 | 14.5 | 0.00 | 0.00 | 0.00 | 39 | 1029.3 |
| 20260905225209 | 18 | 350 | 9.7 | 17.7 | 0.00 | 0.00 | 0.00 | 38 | 1029.2 |
| 20260905224709 | 18 | 30 | 9.7 | 17.7 | 0.00 | 0.00 | 0.00 | 37 | 1029.2 |
| 20260905224210 | 18 | 307 | 6.4 | 14.5 | 0.00 | 0.00 | 0.00 | 38 | 1029.3 |
| 20260905223709 | 18 | 343 | 4.8 | 14.5 | 0.00 | 0.00 | 0.00 | 38 | 1029.3 |
| 20260905223212 | 18 | 343 | 8.0 | 11.3 | 0.00 | 0.00 | 0.00 | 38 | 1029.3 |
| 20260905222709 | 18 | 334 | 4.8 | 11.3 | 0.00 | 0.00 | 0.00 | 38 | 1029.3 |
| 20260905222437 | 18 | 357 | 4.8 | 14.5 | 0.00 | 0.00 | 0.00 | 40 | 1029.4 |
| 20260905221708 | 18 | 334 | 4.8 | 14.5 | 0.00 | 0.00 | 0.00 | 39 | 1029.3 |
| 20260905221209 | 18 | 347 | 6.4 | 14.5 | 0.00 | 0.00 | 0.00 | 38 | 1029.3 |
| 20260905220708 | 19 | 11 | 8.0 | 11.3 | 0.00 | 0.00 | 0.00 | 38 | 1029.4 |
| 20260905220208 | 19 | 350 | 6.4 | 9.7 | 0.00 | 0.00 | 0.00 | 37 | 1029.4 |
| 20260905215708 | 20 | 8 | 3.2 | 6.4 | 0.00 | 0.00 | 0.00 | 37 | 1029.3 |
| 20260905215207 | 20 | 76 | 1.6 | 8.0 | 0.00 | 0.00 | 0.00 | 36 | 1029.3 |
| 20260905214708 | 20 | 28 | 4.8 | 11.3 | 0.00 | 0.00 | 0.00 | 37 | 1029.4 |
| 20260905214652 | 20 | 1 | 4.8 | 11.3 | 0.00 | 0.00 | 0.00 | 38 | 1029.3 |
| 20260905213706 | 20 | 28 | 6.4 | 16.1 | 0.00 | 0.00 | 0.00 | 37 | 1029.3 |
| 20260905213204 | 19 | 39 | 9.7 | 16.1 | 0.00 | 0.00 | 0.00 | 38 | 1029.3 |
| 20260905212709 | 19 | 39 | 8.0 | 14.5 | 0.00 | 0.00 | 0.00 | 39 | 1029.4 |
| 20260905212207 | 19 | 47 | 6.4 | 16.1 | 0.00 | 0.00 | 0.00 | 39 | 1029.4 |
| 20260905211707 | 19 | 52 | 6.4 | 19.3 | 0.00 | 0.00 | 0.00 | 39 | 1029.3 |
| 20260905211207 | 19 | 61 | 9.7 | 19.3 | 0.00 | 0.00 | 0.00 | 40 | 1029.5 |
| 20260905210940 | 19 | 71 | 9.7 | 19.3 | 0.00 | 0.00 | 0.00 | 38 | 1029.4 |
| 20260905210207 | 20 | 52 | 9.7 | 19.3 | 0.00 | 0.00 | 0.00 | 39 | 1029.4 |
| 20260905205707 | 20 | 65 | 6.4 | 19.3 | 0.00 | 0.00 | 0.00 | 40 | 1029.4 |
| 20260905205207 | 20 | 124 | 8.0 | 19.3 | 0.00 | 0.00 | 0.00 | 42 | 1029.3 |
| 20260905204707 | 20 | 118 | 6.4 | 19.3 | 0.00 | 0.00 | 0.00 | 42 | 1029.3 |
| 20260905204213 | 20 | 134 | 12.9 | 24.1 | 0.00 | 0.00 | 0.00 | 41 | 1029.3 |
| 20260905203708 | 20 | 117 | 9.7 | 24.1 | 0.00 | 0.00 | 0.00 | 40 | 1029.3 |
| 20260905203206 | 21 | 100 | 9.7 | 24.1 | 0.00 | 0.00 | 0.00 | 40 | 1029.2 |
| 20260905202706 | 20 | 58 | 14.5 | 24.1 | 0.00 | 0.00 | 0.00 | 39 | 1029.2 |
| 20260905202206 | 20 | 103 | 8.0 | 16.1 | 0.00 | 0.00 | 0.00 | 38 | 1029.1 |
| 20260905201707 | 20 | 137 | 6.4 | 16.1 | 0.00 | 0.00 | 0.00 | 36 | 1029.2 |
| 20260905201206 | 20 | 124 | 4.8 | 16.1 | 0.00 | 0.00 | 0.00 | 36 | 1029.1 |
| 20260905200706 | 20 | 94 | 9.7 | 16.1 | 0.00 | 0.00 | 0.00 | 36 | 1029.1 |
| 20260905200205 | 20 | 104 | 4.8 | 14.5 | 0.00 | 0.00 | 0.00 | 36 | 1029.2 |
| 20260905195705 | 20 | 121 | 6.4 | 14.5 | 0.00 | 0.00 | 0.00 | 39 | 1029.1 |
| 20260905195205 | 20 | 109 | 8.0 | 17.7 | 0.00 | 0.00 | 0.00 | 38 | 1029.1 |
| 20260905194705 | 20 | 148 | 9.7 | 17.7 | 0.00 | 0.00 | 0.00 | 38 | 1029.2 |
| 20260905194205 | 20 | 85 | 6.4 | 14.5 | 0.00 | 0.00 | 0.00 | 39 | 1029.1 |
| 20260905193705 | 20 | 96 | 6.4 | 14.5 | 0.00 | 0.00 | 0.00 | 38 | 1029.2 |
| 20260905193205 | 20 | 94 | 6.4 | 14.5 | 0.00 | 0.00 | 0.00 | 38 | 1029.3 |
| 20260905192705 | 20 | 93 | 6.4 | 16.1 | 0.00 | 0.00 | 0.00 | 38 | 1029.3 |
| 20260905192206 | 20 | 49 | 8.0 | 16.1 | 0.00 | 0.00 | 0.00 | 39 | 1029.3 |
| 20260905191916 | 19 | 73 | 8.0 | 9.7 | 0.00 | 0.00 | 0.00 | 43 | 1029.4 |
| 20260905191801 | 20 | 103 | 3.2 | 11.3 | 0.00 | 0.00 | 0.00 | 41 | 1029.4 |
| 20260905190704 | 19 | 75 | 1.6 | 9.7 | 0.00 | 0.00 | 0.00 | 43 | 1029.4 |
| 20260905190204 | 19 | 102 | 6.4 | 9.7 | 0.00 | 0.00 | 0.00 | 42 | 1029.6 |
| 20260905185704 | 19 | 76 | 4.8 | 9.7 | 0.00 | 0.00 | 0.00 | 44 | 1029.6 |
| 20260905185204 | 18 | 73 | 1.6 | 9.7 | 0.00 | 0.00 | 0.00 | 46 | 1029.6 |
| 20260905184704 | 18 | 42 | 6.4 | 9.7 | 0.00 | 0.00 | 0.00 | 46 | 1029.7 |
| 20260905184423 | 18 | 106 | 3.2 | 9.7 | 0.00 | 0.00 | 0.00 | 47 | 1029.6 |
| 20260905183705 | 18 | 104 | 6.4 | 9.7 | 0.00 | 0.00 | 0.00 | 47 | 1029.8 |
| 20260905183203 | 18 | 90 | 1.6 | 8.0 | 0.00 | 0.00 | 0.00 | 45 | 1029.8 |
| 20260905182703 | 18 | 89 | 3.2 | 8.0 | 0.00 | 0.00 | 0.00 | 47 | 1029.9 |
| 20260905182203 | 18 | 55 | 3.2 | 6.4 | 0.00 | 0.00 | 0.00 | 49 | 1030.0 |
| 20260905181703 | 17 | 121 | 3.2 | 8.0 | 0.00 | 0.00 | 0.00 | 49 | 1030.0 |
| 20260905181204 | 17 | 100 | 4.8 | 8.0 | 0.00 | 0.00 | 0.00 | 49 | 1030.1 |
| 20260905180924 | 17 | 118 | 1.6 | 6.4 | 0.00 | 0.00 | 0.00 | 49 | 1030.1 |
| 20260905180203 | 17 | 82 | 1.6 | 4.8 | 0.00 | 0.00 | 0.00 | 50 | 1030.2 |
| 20260905175702 | 17 | 58 | 1.6 | 9.7 | 0.00 | 0.00 | 0.00 | 52 | 1030.3 |
| 20260905175205 | 16 | 87 | 3.2 | 9.7 | 0.00 | 0.00 | 0.00 | 53 | 1030.4 |
| 20260905174703 | 16 | 151 | 4.8 | 8.0 | 0.00 | 0.00 | 0.00 | 52 | 1030.3 |
| 20260905174203 | 17 | 109 | 3.2 | 6.4 | 0.00 | 0.00 | 0.00 | 51 | 1030.4 |
| 20260905174152 | 16 | 83 | 0.0 | 0.0 | 0.00 | 0.00 | 0.00 | 52 | 1030.6 |
| 20260905173202 | 16 | 147 | 0.0 | 0.0 | 0.00 | 0.00 | 0.00 | 51 | 1030.6 |
| 20260905172704 | 15 | 310 | 0.0 | 0.0 | 0.00 | 0.00 | 0.00 | 55 | 1030.6 |